Location: D�pe
(52.6057°N, 8.1808°E)
Time: 07:23:20
(UTC+00:00)

Cosmos 1825 - Pass Details

Date: 29 October 2020
Orbit: 501 x 508 km, 82.5° (Epoch: 01 December)

Event Time Altitude Azimuth Distance (km) Brightness Sun altitude
Rises 17:07:53 0° 357° (N) 2,630 5.7 -10.4°
Reaches altitude 10° 17:10:18 10° 11° (N) 1,738 4.7 -10.8°
Maximum altitude 17:13:30 25° 68° (ENE) 1,054 3.2 -11.3°
Drops below altitude 10° 17:16:41 10° 126° (SE) 1,722 4.4 -11.8°
Enters shadow 17:16:53 - 128° (SE) 1,790 4.5 -11.8°
